Regional Weather Roundup
Issued by NWS Sterling, VA

Home | Current Version | Previous Version | Text Only | Print | Product List | Glossary On
Versions: 1 2 3 4 5 6 7 8 9 10 11 12 13 14 15 16 17 18 19 20 21 22 23 24 25 26 27 28 29 30 31 32 33 34 35 36 37 38 39 40 41 42 43 44 45 46 47 48 49 50
000
ASUS41 KLWX 290810
RWRLWX

REGIONAL WEATHER ROUNDUP
NATIONAL WEATHER SERVICE BALTIMORE MD/WASHINGTON DC
300 AM EST SAT NOV 29 2014

Note: "FAIR" indicates few or no clouds below 12,000 feet
with no significant weather and/or obstructions to visibility.
 TC=TEMPERATURE CELSIUS

 * =Non NWS site. Station does not report precipitation (e.g. rain,
    snow, etc.), thunder, or fog.

DCZ001-MDZ009-015-VAZ040>042-051-053>054-290900-
WASHINGTON METRO

CITY           SKY/WX    TMP DP  RH WIND       PRES   REMARKS
WASHINGTON NAT MOCLDY    35  18  49 E3        30.33S
DULLES         MOCLDY    27  23  85 CALM      30.31R
ANDREWS AFB    MOCLDY    29  22  73 S1        30.31S
FT BELVOIR     CLOUDY    28  24  86 CALM      30.33S
QUANTICO       PTCLDY    28  23  81 NW5       30.33F
COLLEGE PARK*  CLOUDY    30  27  86 CALM      30.33R
LEESBURG*      CLOUDY    32  27  80 CALM      30.31S
MANASSAS*      PTCLDY    27  25  93 CALM      30.31S
GAITHERSBURG*  MOCLDY    27  21  80 CALM      30.33S

$$

MDZ006>007-011-014-290900-
BALTIMORE METRO

CITY           SKY/WX    TMP DP  RH WIND       PRES   REMARKS
BWI AIRPORT    MOCLDY    27  22  81 CALM      30.31R
MD SCIENCE CTR   N/A     32  20  61 MISG      30.33R
MARTIN STATE   MOCLDY    28  25  86 CALM      30.34S
ANNAPOLIS      MOCLDY    31  26  82 CALM      30.32S
FORT MEADE*    MOCLDY    27  23  86 CALM      30.34S

$$

MDZ012-015-019>023-290900-
MARYLAND EASTERN SHORE

CITY           SKY/WX    TMP DP  RH WIND       PRES   REMARKS
OCEAN CITY     CLEAR     23  20  88 CALM      30.34R
SALISBURY      PTCLDY    26  20  77 CALM      30.33S
BAY BRIDGE AP*   N/A     32  21  64 CALM      30.33S
CAMBRIDGE*     PTCLDY    30  27  86 CALM      30.32S
EASTON*        PTCLDY    28  24  83 CALM      30.36S

$$

MDZ017>025-290900-
SOUTHERN MARYLAND

CITY           SKY/WX    TMP DP  RH WIND       PRES   REMARKS
PATUXENT RIVER MOCLDY    27  22  81 W3        30.32S
ST INIGOES     CLOUDY    29  23  78 CALM      30.32S
LEONARDTOWN*   MOCLDY    28  23  80 CALM      30.33F

$$

MDZ003>005-290900-
NORTH CENTRAL MARYLAND

CITY           SKY/WX    TMP DP  RH WIND       PRES   REMARKS
FREDERICK*     CLOUDY    30  23  74 CALM      30.33S
HAGERSTOWN APT FLURRIES  29  20  69 CALM      30.28R
WESTMINSTER*   CLOUDY    25  19  80 CALM      30.27S

$$

MDZ501>502-290900-
WESTERN MARYLAND

CITY           SKY/WX    TMP DP  RH WIND       PRES   REMARKS
OAKLAND*       CLOUDY    25  10  54 SW8       30.12R WCI  16
CUMBERLAND*    CLOUDY    30  23  74 CALM      30.30R

$$

VAZ025>031-290900-
SHENANDOAH VALLEY

CITY           SKY/WX    TMP DP  RH WIND       PRES   REMARKS
WINCHESTER*    CLOUDY    30  19  64 CALM      30.26F
FRONT ROYAL*   CLOUDY    28  23  80 CALM      30.26R
LURAY*         FAIR      28  27  93 CALM      30.24S
NEW MARKET*    FAIR      25  22  87 CALM      30.25R
STAUNTON*      MOCLDY    25  20  79 CALM      30.24R
WAYNESBORO*    PTSUNNY   27  16  64 CALM      30.21R

$$

WVZ021-048>050-054>055-290900-
EASTERN WEST VIRGINIA PANHANDLE

CITY           SKY/WX    TMP DP  RH WIND       PRES   REMARKS
MARTINSBURG    LGT SNOW  29  22  75 CALM      30.28S
PETERSBURG*    CLOUDY    26  19  76 CALM      30.25R

$$

VAZ036>039-050-290900-
CENTRAL FOOTHILLS

CITY           SKY/WX    TMP DP  RH WIND       PRES   REMARKS
CHARLOTTESVILL PTCLDY    28  20  71 N3        30.27R
CULPEPER*      PTCLDY    25  23  93 CALM      30.29F
ORANGE*        MOCLDY    30  27  86 CALM      30.29S
GORDONSVILLE*  FAIR      26  23  89 CALM      30.28S
WARRENTON*     CLOUDY    27  27 100 CALM      30.29S

$$

VAZ055>057-290900-
NORTH AND CENTRAL PIEDMONT

CITY           SKY/WX    TMP DP  RH WIND       PRES   REMARKS
FREDERICKSBRG* MOCLDY    28  24  88 CALM      30.31S
STAFFORD*      FAIR      25  25 100 CALM      30.35F

$$

NCZ024-NYZ072-PAZ021-071-VAZ022-071-290900-
OTHER REGIONAL OBSERVATIONS

CITY           SKY/WX    TMP DP  RH WIND       PRES   REMARKS
NEW YORK CITY  CLEAR     28  10  46 W6        30.33R
PHILADELPHIA   MOCLDY    28  18  66 NW5       30.33S
PITTSBURGH     CLOUDY    28  19  69 SE7       30.15F
ROANOKE        PTCLDY    27  20  75 N3        30.26R
RICHMOND       PTCLDY    28  22  78 SE3       30.30S
RALEIGH        PTCLDY    29  22  75 CALM      30.29F

$$

ANZ530>537-290900-
MARINE OBSERVATIONS

STATION/POSITION TIME  TEMP    WIND        PRES
                       AIR SEA DIR/SP/G
                 (UTC) (F)     (DEG/KT/KT) (MB)
THOMAS PT LIGHT  0800   35 45   20/  3/  4 1028.1R
BALT KEY BRIDGE  0800   33      30/  1/  2 1026.9R
COVE POINT       0800   34      80/  9/ 11 1026.6R
LEWISETTA        0800   34 45  270/  2/  3 1026.6R
SOLOMONS ISLAND  0800      47                N/A
PINEY POINT      0800           50/  4/  5   N/A

$$



USA.gov is the U.S. government's official web portal to all federal, state and local government web resources and services.